Hourly Data Report for October 31, 2021

DRYDEN REGIONAL
ONTARIO
Current Station Operator: NAVCAN

49°49'39.000" N
92°44'39.000" W
412.70 m
6032125
71527
YHD

Download Data

Hourly Data (October 2021)
Hourly Data Report for October 31, 2021
TIME
LST
Temp Definition
°C
Dew Point Definition
°C
Rel Hum Definition
%
Precip. Amount Definition
mm

Wind Dir Definition
10's deg

Wind Spd Definition
km/h
Visibility Definition
km
Stn Press Definition
kPa
Hmdx Definition


Wind Chill Definition


Weather Definition


00:00 -0.6 -1.3 95 0.0 27 13 16.1 96.38   -5 LegendNANA
01:00 -0.8 -1.8 93 0.0 28 11 16.1 96.38   -5 LegendNANA
02:00 -1.2 -1.9 95 0.0 26 11 16.1 96.41   -5 LegendNANA
03:00 -1.2 -1.8 96 0.0 24 8 16.1 96.40   -4 LegendNANA
04:00 -1.0 -1.7 95 0.0 26 9 16.1 96.42   -4 LegendNANA
05:00 -1.6 -2.2 96 0.0 26 13 16.1 96.42   -6 LegendNANA
06:00 -1.2 -1.8 96 0.0 27 17 16.1 96.42   -6 LegendNANA
07:00 -1.2 -1.9 95 0.0 28 11 16.1 96.45   -5 LegendNANA
08:00 -1.1 -1.7 96 0.0 23 8 16.1 96.47   -4 LegendNANA
09:00 -0.1 -1.1 93 0.0 27 13 16.1 96.47   -4 LegendNANA
10:00 1.4 -0.6 87 0.0 29 11 16.1 96.48     LegendNANA
11:00 1.9 -0.8 83 0.0 29 15 16.1 96.48     LegendNANA
12:00 2.0 -0.1 86 0.0 27 24 16.1 96.46     LegendNANA
13:00 1.3 0.3 93 0.0 29 13 16.1 96.44     Snow
14:00 2.2 0.7 90 0.2 29 13 14.5 96.43     Rain
15:00 0.7 -0.2 93 0.2 27 15 9.7 96.45     Snow
16:00 1.6 -0.1 89 0.0 30 8 16.1 96.46     LegendNANA
17:00 2.0 -1.9 75 0.0 27 28 16.1 96.45     Rain
18:00 0.5 -0.4 94 0.2 28 17 6.4 96.50     Snow
19:00 0.3 -0.1 97 0.0 28 17 11.3 96.52     Snow
20:00 0.3 -0.3 96 0.0 28 15 4.8 96.54     Snow
21:00 0.1 -0.5 96 0.0 28 15 16.1 96.57     Snow
22:00 0.0 -0.6 96 0.0 28 13 16.1 96.58   -4 Snow
23:00 0.0 -0.9 94 0.0 30 13 14.5 96.62   -4 Snow

Notes on Data Quality.

Legend

  • E = Estimated
  • M = Missing
  • NA = Not Available*
  • [empty] = Indicates an unobserved value
Date modified: